loading
|
Showing default

OPS 9315 (IDSCS 5), 2219

Orbit data source: Space-Track

OPS 9315 (IDSCS 5), 2219 is a payload satellite owned by USAF SSD (US) that was launched on Thu, 16 Jun 1966 UTC via a TITAN IIIC launch vehicle from the Air Force Eastern Test Range (AFETR). Payloads include a variety of satellites, spacecraft, and rockets equipped with specific instruments for various scientific and technological missions. These include communications satellites like Starlink; space stations such as the ISS; scientific satellites like the Hubble; Earth observation satellites from companies like Planet Labs, Umbra, and HawkEye 360; GPS; miniature CubeSats for education and research; and military/defense satellites.

Next visibility unknown
Next conjunction unknown
Loading greatness...
OPS 9315 (IDSCS 5) details
Identifier
2219, 1966-053F
Orbit
Active
Last TLE update16 hours ago
Origin
Flag of USUSAF SSD (US)
ManufacturerPhilco-Ford WDL
MissionNon-operational Defense Communications
Bus & MotorIDCSP, Unknown motor
Mass45 kg wet, 45 kg dry
Launch date (UTC)
1966-06-16 (58 years ago)
Launch vehicle
TITAN IIIC
Launch site
Air Force Eastern Test Range (AFETR)
Object type
Payload
Rocket body
Debris
Shape & HBRIco Poly, 0.9 m
Radar Cross Section0.926 m², Large (>1 m²)

Expand to show TLE details & history

TLE from 16 hours ago
0 OPS 9315 (IDSCS 5)
1  2219U 66053F   24286.10583683 -.00000056  00000-0  00000+0 0  9991
2  2219   7.3875  50.7321 0053344 172.9034 187.2199  1.07398015132792
Epoch: 2024-10-12T02:32Z
Definitive object data (Epoch: 2024-10-12T02:32:24.302Z)
Latitude
Longitude-8.52126°
Altitude34,113.203 km
Speed3.129 km/s
True Right ascension03h 22m 59s
True Declination0° 00' 00"
Sunlit
Object was in daylight at TLE epoch
Predictive object data (real-time)
Latitude-7.01915°
Longitude-116.62479°
Altitude33,859.774 km
Speed3.149 km/s
Apparent Right ascension20h 34m 58s
Apparent Declination-12° 01' 46"
Sunlit
Object is in daylight
Predictive observer data (real-time)
Local Sidereal Time12:35:17
Azimuth79.756° E
Elevation-30.525°
Doppler factor1
Orbital elements
Apogee34,116.109 km
Perigee33,686.376 km
Semi-major axis40,279.379 km
Eccentricity0.0053344
Inclination7.3875°
RAAN50.7321°
Arg. of periapsis172.9034°
True anomaly187.14358°
Mean anomaly187.2199°
Eccentric anomaly187.18169°
Mean motion0.26848 °/min
BSTARUnknown
Period1340.86 mins
No data available

OPS 9315 (IDSCS 5) Visibility forecast

Observer location: 39.9160978°, -105.1181434

OPS 9315 (IDSCS 5) is not visible in the next 10 days
Span
Click to sort rows by Start time (UTC) header in descending order
Start Az.
Max El. time (UTC)
Max El. Az.
Max El.
End time (UTC)
End Az.